TimeAEST,TemperatureF,Dew PointF,Humidity,Sea Level PressureIn,VisibilityMPH,Wind Direction,Wind SpeedMPH,Gust SpeedMPH,PrecipitationIn,Events,Conditions,WindDirDegrees,DateUTC
12:00 AM,69,67,90,29.96,,NNW,13.8,,,,,340,2013-09-14 14:00:00
12:00 AM,69.8,66.2,88,29.95,6.2,NNW,13.8,-,N/A,,Overcast,330,2013-09-14 14:00:00
12:30 AM,69.8,66.2,88,29.95,6.2,NNW,13.8,-,N/A,,Mostly Cloudy,330,2013-09-14 14:30:00
12:53 AM,68.0,66.2,94,29.95,6.2,NNW,11.5,-,N/A,,Scattered Clouds,330,2013-09-14 14:53:00
3:00 AM,67,65,91,29.93,,NNW,11.5,,,,,340,2013-09-14 17:00:00
5:02 AM,64.4,62.6,94,29.95,3.1,NNW,5.8,-,N/A,,Unknown,330,2013-09-14 19:02:00
5:27 AM,64.4,62.6,94,29.95,0.4,NW,5.8,-,N/A,,Unknown,320,2013-09-14 19:27:00
5:30 AM,64.4,62.6,94,29.95,0.3,NW,5.8,-,N/A,,Unknown,320,2013-09-14 19:30:00
5:56 AM,62.6,60.8,94,29.98,0.1,WNW,4.6,-,N/A,,Mostly Cloudy,290,2013-09-14 19:56:00
6:00 AM,64,63,94,29.99,0,West,4.6,,,,,270,2013-09-14 20:00:00
6:00 AM,64.4,62.6,94,29.98,0.1,West,4.6,-,N/A,,Mostly Cloudy,270,2013-09-14 20:00:00
6:30 AM,64.4,64.4,100,30.01,0.1,WNW,4.6,-,N/A,,Overcast,290,2013-09-14 20:30:00
7:00 AM,66.2,66.2,100,30.01,6.2,NW,6.9,-,N/A,,Scattered Clouds,310,2013-09-14 21:00:00
7:03 AM,68.0,66.2,94,30.01,6.2,NW,6.9,-,N/A,,Scattered Clouds,310,2013-09-14 21:03:00
7:04 AM,68.0,66.2,94,30.01,6.2,NW,6.9,-,N/A,,Scattered Clouds,310,2013-09-14 21:04:00
9:00 AM,77,62,51,30.02,,NW,6.9,,,,,310,2013-09-14 23:00:00
12:00 PM,86,63,36,29.95,,NNE,8.1,,,,,20,2013-09-15 02:00:00
3:00 PM,83,62,39,29.88,,North,15.0,,,,,10,2013-09-15 05:00:00
6:00 PM,71,66,79,29.94,,ENE,10.4,,,,,70,2013-09-15 08:00:00
8:00 PM,71.6,68.0,88,29.98,6.2,ENE,10.4,-,N/A,,Overcast,60,2013-09-15 10:00:00
8:30 PM,71.6,68.0,88,29.98,6.2,NE,8.1,-,N/A,,Mostly Cloudy,50,2013-09-15 10:30:00
9:00 PM,71,68,87,29.99,,East,8.1,,,,,80,2013-09-15 11:00:00
9:00 PM,71.6,68.0,88,29.98,6.2,ENE,8.1,-,N/A,,Overcast,70,2013-09-15 11:00:00
9:30 PM,71.6,68.0,88,30.01,6.2,ESE,5.8,-,N/A,,Overcast,110,2013-09-15 11:30:00
10:00 PM,71.6,68.0,88,29.98,6.2,East,8.1,-,N/A,,Overcast,80,2013-09-15 12:00:00
10:29 PM,69.8,68.0,94,29.98,6.2,ENE,8.1,-,N/A,,Scattered Clouds,70,2013-09-15 12:29:00